Location: *
(52.2090°N, 4.1550°W)
Time: 09:23:05
(UTC+00:00)

Resurs 01 Rocket - Pass Details

Date: 19 July 2019
Orbit: 634 x 645 km, 98.0° (Epoch: 25 August)

Event Time Altitude Azimuth Distance (km) Brightness Sun altitude
Rises 21:07:31 0° 187° (S) 2,940 4.7 -5.5°
Reaches altitude 10° 21:09:52 10° 196° (SSW) 2,034 3.9 -5.8°
Maximum altitude 21:13:57 35° 263° (W) 1,032 3.1 -6.2°
Drops below altitude 10° 21:18:03 10° 330° (NNW) 2,043 5.8 -6.7°
Sets 21:20:25 0° 340° (NNW) 2,956 6.5 -6.9°
